This demonstration page uses our WeatherBlox Daily Observations layout. Learn more.

Left ArrowRight Arrow

39.12711, -84.51439

Hourly Observations for October 20, 2016

Temp ( °F °C ) Dew Point ( °F °C ) Humidity (%) Winds ( mph kmh ) Pressure ( in mb ) Visibility ( mi km ) Precip ( " mm )
12:29 am 00:29 Mostly Cloudy with Nearby Thunderstorms 65 18.3 65 18.3 100 100 E 3 6 29.94 1014 10 16 0.00 0.00
12:53 am 00:53 Mostly Clear 64 17.8 64 17.8 100 100 WSW 5 7 29.97 1015 9 14 0.00 0.00
1:53 am 01:53 Mostly Cloudy 64 17.8 64 17.8 100 100 Calm 29.94 1014 9 14 0.00 0.00
2:53 am 02:53 Mostly Cloudy 64 17.8 64 17.8 100 100 W 3 6 29.96 1015 8 13 0.00 0.00
3:05 am 03:05 Mostly Cloudy 66 18.9 65 18.3 96 96 NW 8 13 29.97 1015 10 16 0.00 0.00
3:25 am 03:25 Mostly Cloudy 66 18.9 66 18.9 100 100 NNW 6 9 29.97 1015 9 14 0.00 0.00
3:43 am 03:43 Mostly Cloudy 65 18.3 64 17.8 97 97 VRB 3 6 29.97 1015 8 13 0.00 0.00
3:53 am 03:53 Mostly Cloudy 65 18.3 64 17.8 97 97 Calm 29.99 1016 7 11 0.00 0.00
4:13 am 04:13 Mostly Cloudy 65 18.3 64 17.8 97 97 NW 7 11 30.00 1016 7 11 0.00 0.00
4:24 am 04:24 Mostly Cloudy 64 18 64 18 100 100 VRB 3 6 30.00 1016 7 11 0.00 0.00
4:33 am 04:33 Cloudy 65 18.3 64 17.8 97 97 E 5 7 29.97 1015 7 11 0.00 0.00
4:49 am 04:49 Cloudy with Mist and Fog 64 18 64 18 100 100 Calm 29.97 1015 6 10 0.00 0.00
4:53 am 04:53 Cloudy with Mist and Fog 65 18.3 64 17.8 97 97 E 6 9 29.98 1015 6 10 0.00 0.00
5:53 am 05:53 Cloudy with Mist and Fog 64 17.8 64 17.8 100 100 Calm 29.99 1016 4 6 0.00 0.00
6:53 am 06:53 Cloudy with Mist and Fog 63 17.2 63 17.2 100 100 Calm 29.98 1015 4 6 0.00 0.00
7:53 am 07:53 Cloudy with Mist and Fog 63 17.2 63 17.2 100 100 Calm 29.97 1015 3 5 0.00 0.00
8:53 am 08:53 Cloudy with Light Rain 64 17.8 64 17.8 100 100 ENE 3 6 29.97 1015 3 5 0.05 1.27
9:23 am 09:23 Cloudy with Mist and Fog 65 18.3 65 18.3 100 100 Calm 29.94 1014 3 5 0.00 0.03
9:53 am 09:53 Cloudy with Light Rain 65 18.3 65 18.3 100 100 Calm 29.98 1015 4 6 0.00 0.03
10:53 am 10:53 Mostly Cloudy with Mist and Fog 65 18.3 65 18.3 100 100 Calm 29.95 1014 4 6 0.00 0.03
11:53 am 11:53 Cloudy with Light Rain 65 18.3 65 18.3 100 100 SSW 3 6 29.96 1014 2 2 0.05 1.27
12:11 pm 12:11 Cloudy with Thunderstorms 64 17.8 64 17.8 100 100 WNW 5 7 29.94 1014 2 3 0.06 1.52
12:53 pm 12:53 Cloudy with Rain 64 17.8 64 17.8 100 100 SE 5 7 29.96 1015 2 3 0.23 5.84
1:23 pm 13:23 Cloudy with Heavy Rain 65 18.3 64 17.8 97 97 Calm 29.94 1014 2 3 0.05 1.27
1:31 pm 13:31 Cloudy with Rain 65 18.3 65 18.3 100 100 Calm 29.91 1013 2 3 0.07 1.78
1:49 pm 13:49 Cloudy with Rain 64 18 64 18 100 100 ENE 3 6 29.91 1013 2 3 0.14 3.56
1:53 pm 13:53 Cloudy with Rain 65 18.3 65 18.3 100 100 NE 3 6 29.93 1013 2 3 0.15 3.81
2:00 pm 14:00 Cloudy with Rain 64 18 64 18 100 100 Calm 29.91 1013 4 6 0.00 0.00
2:19 pm 14:19 Cloudy with Light Rain 65 18.3 65 18.3 100 100 Calm 29.91 1013 10 16 0.01 0.25
2:39 pm 14:39 Cloudy with Light Rain 64 17.8 64 17.8 100 100 N 8 13 29.91 1013 9 14 0.02 0.51
2:53 pm 14:53 Cloudy with Light Rain 64 17.8 63 17.2 96 96 N 8 13 29.91 1013 8 13 0.02 0.51
3:53 pm 15:53 Cloudy with Light Rain 64 17.8 64 17.8 100 100 Calm 29.89 1012 5 8 0.01 0.25
4:11 pm 16:11 Cloudy with Light Rain 64 17.8 64 17.8 100 100 Calm 29.91 1013 7 11 0.00 0.03
4:53 pm 16:53 Cloudy 65 18.3 64 17.8 97 97 N 7 11 29.88 1012 10 16 0.00 0.03
4:55 pm 16:55 Cloudy 65 18.3 64 17.8 97 97 NNW 7 11 29.91 1013 10 16 0.00 0.00
5:53 pm 17:53 Cloudy 63 17.2 62 16.7 97 97 NNE 10 17 29.88 1012 8 13 0.00 0.03
6:53 pm 18:53 Cloudy 60 15.6 60 15.6 100 100 NNE 7 11 29.88 1012 10 16 0.00 0.00
7:53 pm 19:53 Cloudy with Light Rain 58 14.4 57 13.9 97 97 NNW 10 17 29.92 1013 8 13 0.00 0.03
8:53 pm 20:53 Cloudy with Light Rain 56 13.3 55 12.8 97 97 N 13 20 29.92 1013 6 10 0.02 0.51
9:53 pm 21:53 Cloudy with Light Rain 55 12.8 55 12.8 100 100 N 9 15 29.92 1013 9 14 0.05 1.27
10:53 pm 22:53 Cloudy with Light Rain 55 12.8 54 12.2 96 96 N 13 20 29.91 1013 7 11 0.11 2.79
11:00 pm 23:00 Cloudy with Light Rain 55 13 54 12 94 94 N 9 15 29.94 1014 10 16 0.00 0.00
11:42 pm 23:42 Cloudy with Rain 54 12 N/A N/A NNW 8 13 29.94 1014 5 8 0.09 2.29
11:53 pm 23:53 Cloudy with Rain 54 12 N/A N/A N 10 17 29.91 1013 5 8 0.12 3.05

Powered by AerisWeather